Showing default

TYVAK-0172, 46267

Orbit data source: Space-Track

TYVAK-0172, 46267 is a payload satellite owned by Echostar AU (US) in SSO that was launched on Sun, 30 Aug 2020 UTC via an FALCON 9 launch vehicle from the Air Force Eastern Test Range (AFETR). Payloads include a variety of satellites, spacecraft, and rockets equipped with specific instruments for various scientific and technological missions. These include communications satellites like Starlink; space stations such as the ISS; scientific satellites like the Hubble; Earth observation satellites from companies like Planet Labs, Umbra, and HawkEye 360; GPS; miniature CubeSats for education and research; and military/defense satellites.

Loading next visibility...
TYVAK-0172 details
Identifier
46267, 2020-059C
Orbit
SSO
Last TLE update9 hours ago
Origin
Flag of USEchostar AU (US)
ManufacturerTyvak NSS
MissionOperational Commercial Technology
Bus & MotorCUBESAT 6U?, Unknown motor
Mass11 kg wet, 11 kg dry
Launch date (UTC)
2020-08-30 (4 years ago)
Launch vehicle
FALCON 9
Launch site
Air Force Eastern Test Range (AFETR)
Object type
Payload
Rocket body
Debris
Shape & HBRBox + 2 Pan, Unknown HBR
Radar Cross Section0.077 m², Medium (>0.1 m² and < 1m²)

Expand to show TLE details & history

TLE from 9 hours ago
0 TYVAK-0172
1 46267U 20059C   24348.81987974  .00031672  00000-0  15811-2 0  9992
2 46267  97.7986 195.0231 0003446  57.7982 302.3585 15.17428013233869
Epoch: 2024-12-13T19:40Z
Definitive object data (Epoch: 2024-12-13T19:40:37.609Z)
Latitude0.00004°
Longitude176.88601°
Altitude515.422 km
Speed7.607 km/s
True Right ascension13h 00m 05s
True Declination0° 00' 00"
Sunlit
Object was in daylight at TLE epoch
Visualization TLE readout
Latitude-82.2436°
Longitude-92.74523°
Altitude543.876 km
Speed7.588 km/s
Apparent Right ascension15h 51m 55s
Apparent Declination-63° 18' 32"
Sunlit
Object is in daylight
Visualization observer readout
Local Sidereal Time03:19:32
Azimuth188.989° SSW
Elevation-66.116°
Doppler factor1
Orbital elements
Apogee altitude512.977 km
Perigee altitude508.23 km
Semi-major axis6,888.741 km
Eccentricity0.0003446
Inclination97.7986°
RAAN195.0231°
Arg. of periapsis57.7982°
True anomaly302.32514°
Mean anomaly302.3585°
Eccentric anomaly302.34182°
Mean motion3.79606 °/min
BSTAR0.0015811
Orbital period94.84 mins
Loading maneuver chart data...
Loading historical data...
Loading historical data...
Loading historical data...
Loading historical data...
Loading historical data...
Loading historical data...
Loading historical data...
Other satellites on launch #59 in the year 2020 (2020-08-30 UTC)

TYVAK-0172 Visibility forecast

Observer location: undefined°, undefined

Span
Click to sort rows by Start time (UTC) header in descending order
Start Az.
Max El. time (UTC)
Max El. Az.
Max El.
End time (UTC)
End Az.
5 mins2024-12-14 13:13:35.552Z121.304° SE2024-12-14 13:16:35.552Z65.099° ENE21.225°2024-12-14 13:18:35.552Z25.261° NE
4 mins2024-12-14 14:48:35.552Z228.263° WSW2024-12-14 14:50:35.552Z271.221° WNW19.809°2024-12-14 14:52:35.552Z308.812° NW
5 mins2024-12-15 02:19:35.552Z43.446° NE2024-12-15 02:21:35.552Z88.822° E27.584°2024-12-15 02:24:35.552Z157.318° SSE
|